Regional Weather Roundup
Issued by NWS Raleigh/Durham, NC

Home | Current Version | Previous Version | Text Only | Print | Product List | Glossary On
Versions: 1 2 3 4 5 6 7 8 9 10 11 12 13 14 15 16 17 18 19 20 21 22 23 24 25 26 27 28 29 30 31 32 33 34 35 36 37 38 39 40 41 42 43 44 45 46 47 48 49 50
000
ASUS42 KRAH 030210
RWRRAH
NORTH CAROLINA WEATHER ROUNDUP
NATIONAL WEATHER SERVICE RALEIGH NC
1000 PM EDT SUN AUG 02 2015

NOTE: "FAIR" INDICATES FEW OR NO CLOUDS BELOW 12,000 FEET WITH NO
SIGNIFICANT WEATHER AND/OR OBSTRUCTIONS TO VISIBILITY.

NCZ001-053-055-056-065-067-030300-
WESTERN NORTH CAROLINA

CITY           SKY/WX    TMP DP  RH WIND       PRES   REMARKS
ASHEVILLE      PTCLDY    75  61  61 CALM      30.01R
JEFFERSON      PTCLDY    71  52  52 CALM      30.07F
MORGANTON      MOCLDY    77  60  54 CALM      30.00R
HICKORY        CLEAR     80  57  45 E5        29.94S
RUTHERFORDTON  PTCLDY    80  59  48 CALM      29.94S
MOUNT AIRY     CLEAR     78  58  50 NE5       29.99S
BOONE          MOCLDY    64  60  85 CALM      30.09R
$$

NCZ021-022-025-041-071-084-088-030300-
CENTRAL NORTH CAROLINA

CITY           SKY/WX    TMP DP  RH WIND       PRES   REMARKS
CHARLOTTE      MOCLDY    82  61  48 S13       29.94R
GREENSBORO     PTCLDY    76  59  55 E5        29.95S
WINSTON-SALEM  CLEAR     76  59  55 E5        29.97R
RALEIGH-DURHAM MOCLDY    76  61  59 E3        29.95R
FORT BRAGG     PTCLDY    82  71  69 S6        29.92R
FAYETTEVILLE   CLEAR     82  71  69 S8        29.92S
BURLINGTON     CLEAR     74  61  63 CALM      29.95R
LAURINBURG     PTCLDY    80  69  69 S5        29.94R
$$

NCZ011-015-027-028-043-044-047-080-103-030300-
NORTHEASTERN NORTH CAROLINA

CITY           SKY/WX    TMP DP  RH WIND       PRES   REMARKS
ROCKY MT-WILSO MOCLDY    78  63  59 CALM      29.94R
GREENVILLE     CLEAR     81  73  78 SW5       29.96R
WASHINGTON     CLEAR     79  73  83 CALM      29.96R
ELIZABETH CITY LGT RAIN  77  72  84 W7        29.93S
MANTEO         PTCLDY    81  76  83 SW9       29.93S
CAPE HATTERAS  CLEAR     80  74  81 SW10G21   29.96R
$$

NCZ078-087-090-091-093-098-101-030300-
SOUTHEASTERN NORTH CAROLINA

CITY           SKY/WX    TMP DP  RH WIND       PRES   REMARKS
LUMBERTON      CLEAR     79  71  76 SE3       29.92S
GOLDSBORO      CLEAR     80  73  79 CALM      29.93R
KINSTON        CLEAR     79  73  83 S6        29.95R
KENANSVILLE    CLEAR     77  71  82 CALM      29.95R
NEW BERN       CLEAR     78  72  81 SW5       29.96R
CHERRY POINT   CLEAR     77  72  84 S3        29.96R
BEAUFORT       PTCLDY    79  75  87 SW14      29.96R
JACKSONVILLE   CLEAR     77  72  84 CALM      29.94S
WILMINGTON     CLEAR     77  72  84 S5        29.93F
$$



USA.gov is the U.S. government's official web portal to all federal, state and local government web resources and services.